Tracking 30995 objects as of 6-Jul-2025
HD Live streaming from Space Station
objects crossing your sky now

STARLINK-31149

Track STARLINK-31149 now!
10-day predictions
STARLINK-31149 is classified as:


NORAD ID: 58863
Int'l Code: 2024-019L
Perigee: 489.1 km
Apogee: 491.3 km
Inclination: 43.0 °
Period: 94.3 minutes
Semi major axis: 6861 km
RCS: Unknown
Launch date: January 29, 2024
Source: United States (US)
Launch site: AIR FORCE EASTERN TEST RANGE (AFETR)
Your satellite tracking list
Your tracking list is empty




NASA's NSSDC Master Catalog

Two Line Element Set (TLE):
1 58863U 24019L   25187.09212995 -.00000226  00000-0  13138-5 0  9998
2 58863  43.0022 201.1351 0001556 302.1535  57.9165 15.27576320 81372
Source of the keplerian elements: AFSPC